This is the latest recevied weather packets stored in our database for station/object EA3DJ-10. If no packets are shown the sender has not sent any weather packets the latest 10 day(s).
| Time | Temp. | Humidity | Pressure | Rain* | Wind** | Luminosity | Snow |
|---|---|---|---|---|---|---|---|
| 1788127179 | 30° C | 32% | 1018.2 hPa | - | - | - | - |
| 1788125979 | 31.11° C | 38% | 1018.1 hPa | - | - | - | - |
| 1788124779 | 30° C | 31% | 1017.9 hPa | - | - | - | - |
| 1788123579 | 34.44° C | 32% | 1017.8 hPa | - | - | - | - |
| 1788122377 | 30° C | 32% | 1017.8 hPa | - | - | - | - |
| 1788121177 | 30° C | 30% | 1017.7 hPa | - | - | - | - |
| 1788119977 | 31.11° C | 32% | 1017.6 hPa | - | - | - | - |
| 1788118777 | 32.78° C | 33% | 1017.5 hPa | - | - | - | - |
| 1788117577 | 32.22° C | 34% | 1017.3 hPa | - | - | - | - |
| 1788116376 | 31.67° C | 33% | 1017 hPa | - | - | - | - |
| 1788115176 | 31.11° C | 34% | 1016.9 hPa | - | - | - | - |
| 1788113976 | 30.56° C | 33% | 1016.8 hPa | - | - | - | - |
| 1788112776 | 31.11° C | 32% | 1016.7 hPa | - | - | - | - |
| 1788111576 | 27.78° C | 35% | 1016.8 hPa | - | - | - | - |
| 1788110372 | 25.56° C | 36% | 1016.8 hPa | - | - | - | - |
| 1788109171 | 26.11° C | 37% | 1016.8 hPa | - | - | - | - |
| 1788107971 | 26.67° C | 38% | 1016.7 hPa | - | - | - | - |
| 1788106771 | 28.89° C | 44% | 1016.6 hPa | - | - | - | - |
| 1788105570 | 28.89° C | 44% | 1016.7 hPa | - | - | - | - |
| 1788104370 | 28.89° C | 44% | 1016.7 hPa | - | - | - | - |
| 1788103170 | 28.89° C | 44% | 1016.8 hPa | - | - | - | - |
| 1788101970 | 28.89° C | 44% | 1017 hPa | - | - | - | - |
| 1788100770 | 29.44° C | 44% | 1017.2 hPa | - | - | - | - |
| 1788099570 | 29.44° C | 43% | 1017.3 hPa | - | - | - | - |
| 1788098370 | 30.56° C | 40% | 1017.4 hPa | - | - | - | - |
* Rain since midnight (hover to see other rain measurements)
** Current wind speed in m/s (hover to see current wind gust speed)